QPF
0.04 0.05 0.06 0.07 0.09 0.09 0.09 0.10 0.11 0.13 0.14 0.13 0.11 0.09 0.08 0.09 0.08 0.07 0.07 0.08 0.07 0.06 0.06 0.06 0.07 0.07 0.06 0.04 0.04 0.03 0.02 0.02 0.02 0.01 0.01 0.02 0.02 0.02 0.02 0.03 0.02 0.02 0.02
0.02 0.03 0.03 0.04 0.06 0.08 0.09 0.09 0.10 0.13 0.15 0.15 0.15 0.13 0.11 0.09 0.09 0.09 0.08 0.07 0.07 0.06 0.06 0.06 0.06 0.06 0.05 0.04 0.04 0.03 0.02 0.01 0.02 0.01 0.01 0.02 0.02 0.02 0.02 0.02 0.02 0.02 0.02
0.02 0.02 0.04 0.06 0.08 0.08 0.07 0.08 0.10 0.12 0.13 0.16 0.18 0.14 0.11 0.09 0.08 0.07 0.08 0.09 0.09 0.08 0.06 0.05 0.05 0.05 0.04 0.04 0.04 0.03 0.02 0.01 0.02 0.02 0.03 0.02 0.02 0.01 0.02 0.02 0.02 0.02 0.02
0.02 0.02 0.03 0.06 0.07 0.05 0.06 0.08 0.10 0.14 0.13 0.14 0.16 0.15 0.12 0.10 0.09 0.09 0.08 0.08 0.08 0.06 0.05 0.05 0.04 0.04 0.03 0.03 0.02 0.01 0.01 0.00 0.01 0.01 0.02 0.03 0.03 0.02 0.02 0.02 0.02 0.02 0.02
0.01 0.02 0.03 0.05 0.06 0.07 0.06 0.08 0.13 0.17 0.16 0.13 0.13 0.16 0.13 0.12 0.11 0.10 0.08 0.07 0.06 0.06 0.05 0.03 0.03 0.03 0.02 0.02 0.02 0.01 0.01 0.00 0.00 0.01 0.02 0.03 0.04 0.03 0.02 0.02 0.02 0.02 0.02
0.02 0.02 0.02 0.03 0.05 0.06 0.09 0.11 0.15 0.16 0.15 0.12 0.10 0.13 0.12 0.12 0.10 0.09 0.09 0.08 0.07 0.05 0.03 0.02 0.04 0.05 0.05 0.06 0.04 0.02 0.01 0.00 0.00 0.01 0.02 0.03 0.04 0.04 0.03 0.03 0.02 0.03 0.04
0.02 0.02 0.03 0.02 0.03 0.05 0.09 0.12 0.13 0.12 0.11 0.11 0.11 0.11 0.10 0.10 0.08 0.07 0.06 0.05 0.04 0.03 0.03 0.03 0.04 0.05 0.04 0.03 0.02 0.01 0.00 0.00 0.00 0.01 0.01 0.02 0.03 0.03 0.04 0.04 0.04 0.04 0.04
0.02 0.02 0.02 0.02 0.03 0.04 0.06 0.08 0.10 0.09 0.10 0.11 0.10 0.08 0.08 0.08 0.07 0.06 0.05 0.05 0.04 0.04 0.03 0.03 0.02 0.02 0.02 0.02 0.01 0.00 0.00 0.00 0.00 0.00 0.01 0.01 0.02 0.02 0.03 0.03 0.04 0.04 0.03
0.02 0.02 0.03 0.04 0.04 0.04 0.04 0.05 0.06 0.06 0.07 0.07 0.07 0.07 0.06 0.05 0.06 0.06 0.05 0.05 0.05 0.04 0.04 0.03 0.03 0.02 0.02 0.02 0.01 0.01 0.00 0.00 0.00 0.00 0.00 0.01 0.01 0.02 0.02 0.03 0.03 0.03 0.03
0.02 0.03 0.05 0.05 0.04 0.04 0.04 0.04 0.04 0.04 0.04 0.04 0.04 0.04 0.05 0.06 0.06 0.06 0.05 0.05 0.04 0.04 0.05 0.06 0.04 0.02 0.02 0.02 0.02 0.01 0.01 0.00 0.00 0.00 0.00 0.01 0.01 0.01 0.02 0.02 0.02 0.02 0.03
0.04 0.04 0.04 0.04 0.04 0.04 0.04 0.04 0.05 0.05 0.05 0.04 0.04 0.03 0.04 0.04 0.04 0.03 0.04 0.04 0.04 0.04 0.04 0.06 0.06 0.04 0.03 0.02 0.02 0.01 0.01 0.01 0.01 0.00 0.00 0.01 0.01 0.01 0.01 0.02 0.02 0.03 0.02
0.05 0.05 0.04 0.04 0.03 0.03 0.03 0.03 0.03 0.04 0.05 0.05 0.05 0.04 0.03 0.02 0.02 0.03 0.03 0.03 0.05 0.05 0.04 0.05 0.06 0.05 0.03 0.02 0.02 0.02 0.01 0.01 0.01 0.01 0.01 0.01 0.01 0.01 0.02 0.03 0.03 0.03 0.02
0.05 0.05 0.04 0.03 0.02 0.02 0.02 0.02 0.03 0.03 0.03 0.03 0.03 0.02 0.02 0.02 0.02 0.01 0.02 0.03 0.04 0.05 0.06 0.06 0.05 0.04 0.04 0.03 0.03 0.02 0.02 0.02 0.01 0.01 0.01 0.01 0.01 0.02 0.03 0.03 0.03 0.03 0.03
0.03 0.04 0.03 0.02 0.02 0.03 0.04 0.03 0.03 0.02 0.01 0.01 0.01 0.01 0.02 0.02 0.02 0.02 0.03 0.03 0.02 0.04 0.05 0.05 0.04 0.03 0.03 0.03 0.03 0.02 0.02 0.02 0.01 0.01 0.01 0.01 0.01 0.02 0.02 0.03 0.02 0.03 0.03
0.03 0.03 0.02 0.02 0.02 0.01 0.01 0.02 0.02 0.01 0.01 0.01 0.01 0.01 0.01 0.02 0.02 0.03 0.03 0.03 0.03 0.03 0.03 0.03 0.03 0.03 0.03 0.03 0.03 0.02 0.02 0.02 0.01 0.01 0.01 0.01 0.01 0.02 0.02 0.02 0.02 0.02 0.02
0.02 0.02 0.01 0.01 0.01 0.01 0.01 0.01 0.01 0.01 0.01 0.02 0.02 0.02 0.02 0.02 0.02 0.02 0.02 0.02 0.03 0.03 0.02 0.03 0.03 0.02 0.02 0.02 0.03 0.03 0.02 0.02 0.01 0.01 0.01 0.01 0.01 0.01 0.02 0.02 0.02 0.03 0.05
0.02 0.02 0.01 0.01 0.00 0.01 0.01 0.01 0.02 0.02 0.02 0.02 0.02 0.03 0.03 0.03 0.02 0.02 0.02 0.02 0.02 0.02 0.01 0.02 0.02 0.01 0.01 0.02 0.02 0.02 0.02 0.02 0.01 0.02 0.02 0.01 0.01 0.01 0.01 0.02 0.02 0.03 0.05
0.03 0.02 0.01 0.01 0.01 0.01 0.01 0.01 0.02 0.03 0.02 0.01 0.01 0.02 0.02 0.03 0.03 0.02 0.03 0.02 0.01 0.01 0.01 0.01 0.02 0.01 0.01 0.01 0.01 0.02 0.02 0.02 0.01 0.01 0.01 0.01 0.01 0.01 0.01 0.01 0.01 0.01 0.02
0.02 0.02 0.01 0.01 0.01 0.01 0.01 0.01 0.02 0.02 0.02 0.01 0.01 0.02 0.03 0.04 0.04 0.04 0.03 0.03 0.02 0.02 0.02 0.02 0.02 0.02 0.01 0.01 0.02 0.02 0.02 0.01 0.01 0.01 0.01 0.01 0.01 0.01 0.02 0.02 0.01 0.01 0.01
0.01 0.01 0.01 0.01 0.01 0.01 0.01 0.02 0.02 0.03 0.02 0.01 0.02 0.03 0.04 0.04 0.04 0.04 0.04 0.03 0.03 0.02 0.03 0.03 0.03 0.02 0.02 0.01 0.02 0.01 0.01 0.01 0.01 0.01 0.01 0.02 0.02 0.03 0.02 0.02 0.01 0.01 0.00
0.01 0.01 0.01 0.01 0.02 0.03 0.02 0.02 0.02 0.02 0.01 0.01 0.02 0.03 0.04 0.03 0.04 0.04 0.03 0.04 0.03 0.02 0.03 0.03 0.02 0.03 0.02 0.01 0.01 0.02 0.01 0.01 0.01 0.02 0.02 0.02 0.02 0.02 0.02 0.01 0.01 0.01 0.00
0.01 0.01 0.01 0.01 0.02 0.03 0.02 0.02 0.01 0.01 0.01 0.02 0.02 0.02 0.03 0.03 0.03 0.03 0.03 0.02 0.02 0.01 0.03 0.05 0.07 0.05 0.03 0.01 0.01 0.02 0.02 0.01 0.03 0.02 0.01 0.01 0.01 0.01 0.01 0.00 0.00 0.01 0.01
0.02 0.01 0.01 0.01 0.01 0.02 0.02 0.01 0.01 0.01 0.01 0.02 0.02 0.02 0.03 0.02 0.02 0.02 0.02 0.02 0.01 0.02 0.02 0.04 0.05 0.04 0.04 0.02 0.01 0.01 0.01 0.01 0.02 0.01 0.01 0.01 0.01 0.01 0.00 0.01 0.01 0.01 0.01
0.02 0.01 0.02 0.01 0.02 0.02 0.01 0.01 0.01 0.01 0.01 0.01 0.02 0.02 0.03 0.02 0.01 0.01 0.02 0.02 0.02 0.01 0.02 0.02 0.01 0.01 0.01 0.01 0.01 0.00 0.00 0.00 0.01 0.01 0.01 0.01 0.00 0.00 0.01 0.01 0.01 0.01 0.01
0.02 0.02 0.02 0.02 0.03 0.02 0.01 0.01 0.01 0.01 0.01 0.01 0.01 0.02 0.02 0.02 0.02 0.02 0.02 0.02 0.02 0.02 0.02 0.01 0.01 0.01 0.00 0.00 0.01 0.00 0.00 0.00 0.00 0.00 0.00 0.01 0.01 0.01 0.01 0.01 0.01 0.01 0.01
0.02 0.02 0.03 0.03 0.02 0.01 0.01 0.01 0.01 0.00 0.00 0.01 0.01 0.01 0.02 0.03 0.02 0.01 0.02 0.01 0.01 0.01 0.01 0.01 0.00 0.00 0.00 0.00 0.00 0.00 0.00 0.00 0.00 0.00 0.01 0.01 0.01 0.01 0.01 0.01 0.01 0.01 0.01
MSLP
1009.52 1009.70 1009.89 1010.10 1010.32 1010.55 1010.80 1011.11 1011.45 1011.84 1012.23 1012.62 1012.97 1013.25 1013.47 1013.61 1013.71 1013.78 1013.86 1013.97 1014.14 1014.36 1014.63 1014.93 1015.23 1015.51 1015.75 1015.92 1016.03 1016.05 1016.00 1015.88 1015.69 1015.44 1015.12 1014.75 1014.34 1013.89 1013.43 1013.00 1012.60 1012.26 1012.00
1009.79 1009.99 1010.18 1010.33 1010.46 1010.58 1010.73 1010.93 1011.20 1011.55 1011.96 1012.40 1012.82 1013.19 1013.49 1013.71 1013.85 1013.96 1014.06 1014.18 1014.34 1014.56 1014.83 1015.14 1015.44 1015.73 1015.96 1016.13 1016.22 1016.24 1016.20 1016.08 1015.91 1015.67 1015.38 1015.04 1014.64 1014.20 1013.74 1013.27 1012.83 1012.45 1012.13
1010.00 1010.25 1010.47 1010.62 1010.71 1010.75 1010.80 1010.91 1011.11 1011.42 1011.82 1012.29 1012.77 1013.22 1013.60 1013.90 1014.11 1014.26 1014.38 1014.50 1014.66 1014.85 1015.10 1015.37 1015.65 1015.90 1016.11 1016.26 1016.33 1016.35 1016.30 1016.21 1016.07 1015.88 1015.64 1015.35 1015.00 1014.60 1014.16 1013.70 1013.25 1012.83 1012.46
1010.14 1010.50 1010.79 1010.99 1011.08 1011.09 1011.08 1011.11 1011.24 1011.50 1011.88 1012.36 1012.88 1013.39 1013.84 1014.21 1014.48 1014.66 1014.80 1014.91 1015.04 1015.20 1015.40 1015.62 1015.84 1016.04 1016.20 1016.31 1016.37 1016.37 1016.33 1016.26 1016.16 1016.03 1015.86 1015.63 1015.35 1015.01 1014.61 1014.18 1013.74 1013.31 1012.91
1010.24 1010.73 1011.15 1011.44 1011.58 1011.60 1011.56 1011.54 1011.61 1011.82 1012.16 1012.62 1013.16 1013.70 1014.20 1014.61 1014.91 1015.12 1015.26 1015.36 1015.45 1015.57 1015.70 1015.85 1016.01 1016.15 1016.26 1016.33 1016.35 1016.34 1016.31 1016.26 1016.19 1016.11 1016.00 1015.84 1015.62 1015.34 1015.00 1014.61 1014.19 1013.76 1013.35
1010.33 1010.98 1011.55 1011.96 1012.18 1012.24 1012.21 1012.17 1012.19 1012.34 1012.64 1013.07 1013.59 1014.13 1014.63 1015.06 1015.38 1015.59 1015.71 1015.79 1015.84 1015.90 1015.97 1016.06 1016.15 1016.23 1016.29 1016.32 1016.32 1016.29 1016.25 1016.21 1016.16 1016.10 1016.02 1015.91 1015.74 1015.52 1015.22 1014.87 1014.48 1014.07 1013.66
1010.43 1011.24 1011.96 1012.51 1012.83 1012.96 1012.96 1012.91 1012.91 1013.01 1013.26 1013.64 1014.11 1014.62 1015.10 1015.51 1015.81 1016.00 1016.10 1016.14 1016.15 1016.16 1016.17 1016.21 1016.26 1016.30 1016.32 1016.31 1016.28 1016.24 1016.18 1016.12 1016.06 1016.00 1015.92 1015.82 1015.67 1015.47 1015.21 1014.89 1014.53 1014.15 1013.75
1010.55 1011.50 1012.36 1013.02 1013.45 1013.66 1013.70 1013.67 1013.65 1013.72 1013.92 1014.24 1014.66 1015.11 1015.55 1015.91 1016.17 1016.32 1016.38 1016.38 1016.35 1016.32 1016.30 1016.30 1016.32 1016.33 1016.33 1016.31 1016.26 1016.19 1016.10 1016.01 1015.91 1015.81 1015.70 1015.57 1015.41 1015.21 1014.95 1014.66 1014.32 1013.97 1013.60
1010.67 1011.72 1012.69 1013.45 1013.97 1014.25 1014.35 1014.34 1014.33 1014.39 1014.55 1014.82 1015.17 1015.56 1015.93 1016.23 1016.43 1016.53 1016.54 1016.50 1016.43 1016.37 1016.33 1016.32 1016.33 1016.34 1016.34 1016.31 1016.25 1016.15 1016.02 1015.87 1015.72 1015.55 1015.38 1015.19 1014.99 1014.76 1014.50 1014.21 1013.90 1013.57 1013.25
1010.78 1011.89 1012.91 1013.74 1014.32 1014.66 1014.81 1014.85 1014.86 1014.92 1015.06 1015.30 1015.60 1015.92 1016.22 1016.45 1016.58 1016.62 1016.58 1016.50 1016.40 1016.33 1016.28 1016.28 1016.30 1016.33 1016.34 1016.31 1016.24 1016.11 1015.94 1015.73 1015.50 1015.25 1015.00 1014.74 1014.47 1014.20 1013.91 1013.63 1013.34 1013.05 1012.76
1010.86 1011.98 1013.02 1013.87 1014.48 1014.87 1015.07 1015.15 1015.20 1015.29 1015.44 1015.65 1015.92 1016.19 1016.42 1016.58 1016.65 1016.63 1016.54 1016.42 1016.30 1016.22 1016.19 1016.20 1016.24 1016.29 1016.32 1016.30 1016.22 1016.07 1015.85 1015.58 1015.27 1014.94 1014.60 1014.26 1013.93 1013.61 1013.30 1013.01 1012.74 1012.48 1012.23
1010.91 1012.02 1013.03 1013.86 1014.48 1014.89 1015.13 1015.27 1015.37 1015.49 1015.66 1015.88 1016.12 1016.35 1016.54 1016.64 1016.64 1016.57 1016.45 1016.30 1016.17 1016.09 1016.06 1016.10 1016.16 1016.24 1016.28 1016.27 1016.18 1016.01 1015.74 1015.42 1015.04 1014.63 1014.21 1013.81 1013.42 1013.06 1012.74 1012.44 1012.18 1011.95 1011.74
1010.95 1012.00 1012.96 1013.76 1014.36 1014.78 1015.06 1015.24 1015.40 1015.57 1015.77 1016.01 1016.24 1016.45 1016.59 1016.64 1016.61 1016.50 1016.34 1016.18 1016.04 1015.96 1015.95 1016.00 1016.08 1016.17 1016.22 1016.20 1016.10 1015.90 1015.61 1015.23 1014.80 1014.33 1013.86 1013.41 1012.98 1012.60 1012.25 1011.96 1011.70 1011.48 1011.29
1010.97 1011.97 1012.87 1013.62 1014.19 1014.61 1014.91 1015.14 1015.35 1015.57 1015.81 1016.06 1016.29 1016.48 1016.59 1016.62 1016.55 1016.41 1016.24 1016.07 1015.93 1015.86 1015.85 1015.91 1016.00 1016.08 1016.13 1016.10 1015.97 1015.74 1015.42 1015.00 1014.54 1014.04 1013.54 1013.06 1012.61 1012.20 1011.85 1011.55 1011.29 1011.06 1010.87
1011.01 1011.95 1012.78 1013.48 1014.02 1014.44 1014.76 1015.02 1015.27 1015.53 1015.79 1016.06 1016.29 1016.46 1016.56 1016.56 1016.47 1016.32 1016.15 1015.98 1015.85 1015.78 1015.78 1015.83 1015.90 1015.97 1015.99 1015.93 1015.77 1015.52 1015.16 1014.73 1014.24 1013.73 1013.21 1012.72 1012.27 1011.85 1011.49 1011.17 1010.89 1010.64 1010.43
1011.05 1011.94 1012.73 1013.38 1013.90 1014.31 1014.64 1014.93 1015.21 1015.49 1015.77 1016.03 1016.25 1016.41 1016.48 1016.47 1016.37 1016.22 1016.05 1015.89 1015.77 1015.71 1015.70 1015.74 1015.78 1015.82 1015.79 1015.69 1015.50 1015.21 1014.83 1014.38 1013.89 1013.38 1012.87 1012.38 1011.93 1011.50 1011.12 1010.77 1010.45 1010.16 1009.89
1011.09 1011.95 1012.70 1013.33 1013.84 1014.25 1014.59 1014.90 1015.19 1015.47 1015.74 1015.99 1016.19 1016.32 1016.37 1016.34 1016.24 1016.10 1015.94 1015.79 1015.68 1015.62 1015.60 1015.61 1015.63 1015.61 1015.54 1015.39 1015.15 1014.83 1014.43 1013.97 1013.48 1012.98 1012.49 1012.01 1011.56 1011.13 1010.72 1010.33 1009.95 1009.59 1009.25
1011.12 1011.96 1012.70 1013.32 1013.83 1014.25 1014.61 1014.93 1015.22 1015.49 1015.74 1015.95 1016.11 1016.20 1016.23 1016.18 1016.08 1015.94 1015.79 1015.66 1015.56 1015.49 1015.46 1015.44 1015.41 1015.34 1015.21 1015.01 1014.73 1014.38 1013.97 1013.51 1013.04 1012.56 1012.08 1011.62 1011.17 1010.72 1010.28 1009.84 1009.40 1008.96 1008.53
1011.12 1011.95 1012.69 1013.32 1013.86 1014.30 1014.68 1015.00 1015.29 1015.54 1015.75 1015.92 1016.03 1016.08 1016.07 1016.00 1015.89 1015.75 1015.61 1015.49 1015.39 1015.32 1015.26 1015.21 1015.13 1015.01 1014.83 1014.59 1014.27 1013.90 1013.48 1013.04 1012.58 1012.12 1011.67 1011.22 1010.77 1010.31 1009.84 1009.34 1008.83 1008.32 1007.81
1011.08 1011.91 1012.67 1013.33 1013.90 1014.37 1014.77 1015.11 1015.38 1015.61 1015.78 1015.91 1015.97 1015.97 1015.92 1015.82 1015.69 1015.55 1015.41 1015.29 1015.18 1015.10 1015.01 1014.92 1014.80 1014.63 1014.41 1014.13 1013.80 1013.42 1013.00 1012.58 1012.14 1011.71 1011.28 1010.85 1010.40 1009.93 1009.43 1008.89 1008.33 1007.75 1007.18
1011.01 1011.85 1012.63 1013.33 1013.93 1014.45 1014.88 1015.22 1015.50 1015.70 1015.84 1015.92 1015.93 1015.89 1015.79 1015.67 1015.52 1015.36 1015.21 1015.07 1014.95 1014.84 1014.72 1014.59 1014.43 1014.23 1013.97 1013.67 1013.33 1012.95 1012.56 1012.15 1011.75 1011.35 1010.94 1010.53 1010.09 1009.61 1009.10 1008.53 1007.94 1007.33 1006.72
1010.93 1011.78 1012.58 1013.31 1013.96 1014.51 1014.97 1015.33 1015.61 1015.80 1015.91 1015.95 1015.92 1015.84 1015.71 1015.55 1015.38 1015.20 1015.02 1014.86 1014.71 1014.57 1014.41 1014.25 1014.05 1013.81 1013.54 1013.23 1012.88 1012.52 1012.15 1011.77 1011.40 1011.03 1010.65 1010.26 1009.83 1009.36 1008.85 1008.29 1007.69 1007.08 1006.48
1010.87 1011.72 1012.54 1013.29 1013.97 1014.55 1015.03 1015.41 1015.69 1015.87 1015.97 1015.99 1015.93 1015.82 1015.67 1015.48 1015.28 1015.07 1014.87 1014.67 1014.48 1014.30 1014.10 1013.89 1013.66 1013.40 1013.11 1012.80 1012.47 1012.12 1011.77 1011.43 1011.09 1010.74 1010.38 1010.01 1009.60 1009.15 1008.66 1008.12 1007.56 1006.99 1006.44
1010.86 1011.70 1012.51 1013.27 1013.95 1014.55 1015.04 1015.43 1015.71 1015.90 1015.99 1016.00 1015.94 1015.82 1015.65 1015.45 1015.22 1014.99 1014.75 1014.52 1014.28 1014.05 1013.81 1013.55 1013.29 1013.00 1012.70 1012.39 1012.06 1011.73 1011.41 1011.08 1010.76 1010.43 1010.09 1009.73 1009.35 1008.93 1008.47 1007.99 1007.49 1006.99 1006.52
1010.91 1011.72 1012.51 1013.24 1013.91 1014.49 1014.98 1015.37 1015.65 1015.85 1015.95 1015.97 1015.92 1015.80 1015.64 1015.43 1015.19 1014.94 1014.67 1014.39 1014.11 1013.82 1013.53 1013.23 1012.92 1012.61 1012.29 1011.97 1011.65 1011.33 1011.01 1010.69 1010.38 1010.06 1009.73 1009.39 1009.02 1008.63 1008.23 1007.81 1007.39 1006.99 1006.61
1011.02 1011.78 1012.52 1013.21 1013.82 1014.37 1014.83 1015.20 1015.49 1015.69 1015.81 1015.85 1015.83 1015.74 1015.60 1015.40 1015.17 1014.89 1014.60 1014.28 1013.95 1013.61 1013.27 1012.92 1012.57 1012.22 1011.88 1011.54 1011.20 1010.87 1010.55 1010.23 1009.91 1009.59 1009.26 1008.92 1008.58 1008.22 1007.87 1007.52 1007.19 1006.89 1006.62
Thickness
5738 5737 5735 5733 5729 5725 5721 5718 5714 5712 5708 5703 5699 5694 5691 5689 5687 5685 5682 5680 5676 5673 5670 5667 5664 5661 5658 5655 5653 5651 5649 5647 5646 5645 5645 5645 5645 5645 5645 5645 5644 5644 5645
5731 5730 5729 5727 5724 5721 5718 5715 5712 5708 5704 5701 5697 5693 5689 5685 5682 5679 5676 5674 5672 5669 5666 5662 5659 5656 5653 5649 5647 5644 5642 5640 5638 5636 5635 5634 5635 5636 5638 5637 5637 5637 5637
5727 5726 5724 5722 5720 5717 5715 5712 5708 5704 5700 5696 5691 5687 5683 5679 5675 5673 5670 5668 5666 5663 5660 5657 5654 5651 5647 5643 5641 5639 5636 5632 5630 5629 5627 5625 5624 5625 5628 5628 5629 5629 5629
5725 5723 5721 5718 5716 5714 5712 5708 5705 5700 5696 5692 5687 5682 5677 5673 5671 5668 5665 5663 5660 5657 5654 5651 5648 5645 5641 5638 5636 5633 5630 5627 5624 5622 5621 5619 5618 5617 5619 5620 5621 5621 5621
5723 5720 5719 5716 5713 5710 5706 5703 5700 5695 5691 5687 5684 5679 5674 5670 5666 5663 5660 5657 5654 5651 5649 5646 5643 5639 5636 5633 5630 5627 5625 5622 5619 5617 5615 5613 5611 5610 5610 5612 5613 5613 5614
5720 5717 5715 5712 5708 5705 5701 5698 5694 5689 5685 5681 5678 5673 5669 5665 5661 5657 5653 5650 5648 5645 5643 5641 5637 5634 5630 5628 5625 5622 5620 5617 5614 5612 5609 5608 5606 5605 5604 5604 5605 5605 5607
5715 5713 5710 5707 5703 5699 5696 5692 5688 5683 5680 5676 5672 5669 5664 5660 5656 5652 5648 5645 5641 5639 5637 5635 5632 5628 5625 5623 5620 5617 5614 5612 5609 5607 5604 5603 5601 5600 5599 5598 5598 5597 5599
5711 5709 5706 5702 5698 5694 5691 5687 5682 5678 5674 5670 5667 5663 5659 5655 5652 5648 5644 5641 5638 5635 5633 5629 5627 5624 5621 5618 5615 5612 5609 5607 5605 5603 5600 5598 5597 5595 5593 5593 5592 5592 5593
5705 5703 5700 5697 5693 5689 5686 5682 5678 5673 5670 5665 5661 5658 5653 5650 5646 5643 5640 5637 5634 5632 5628 5625 5622 5620 5616 5613 5610 5607 5605 5603 5600 5598 5596 5594 5592 5591 5589 5588 5587 5586 5587
5699 5697 5695 5691 5688 5684 5680 5675 5673 5669 5665 5661 5657 5654 5649 5646 5642 5640 5636 5633 5630 5628 5624 5621 5618 5615 5612 5609 5606 5603 5601 5598 5596 5594 5592 5590 5588 5586 5585 5583 5582 5581 5581
5694 5692 5689 5687 5683 5678 5674 5670 5666 5663 5659 5655 5652 5649 5645 5641 5638 5635 5632 5629 5626 5623 5620 5617 5614 5611 5608 5605 5602 5599 5597 5594 5592 5590 5588 5586 5584 5582 5581 5579 5578 5577 5576
5689 5686 5684 5681 5677 5673 5669 5666 5662 5658 5654 5651 5647 5643 5640 5636 5633 5630 5628 5625 5622 5620 5617 5613 5610 5607 5604 5602 5598 5596 5594 5591 5588 5586 5584 5582 5581 5579 5577 5576 5575 5574 5573
5682 5680 5678 5675 5672 5669 5665 5661 5658 5654 5650 5646 5642 5638 5635 5632 5629 5627 5625 5622 5619 5617 5614 5610 5607 5604 5601 5598 5596 5593 5590 5587 5585 5583 5581 5580 5577 5576 5575 5573 5572 5571 5570
5678 5675 5672 5669 5667 5664 5660 5657 5653 5649 5646 5642 5638 5634 5632 5629 5627 5624 5622 5619 5616 5613 5611 5608 5605 5601 5599 5596 5593 5590 5587 5584 5583 5581 5579 5577 5575 5574 5572 5571 5569 5568 5566
5674 5671 5667 5665 5662 5658 5655 5653 5649 5646 5643 5638 5635 5632 5630 5627 5624 5622 5619 5617 5614 5612 5608 5605 5602 5599 5597 5594 5591 5587 5584 5582 5580 5579 5577 5575 5574 5572 5570 5569 5567 5565 5564
5671 5668 5665 5662 5659 5656 5653 5649 5646 5643 5639 5636 5632 5630 5627 5625 5622 5619 5617 5614 5612 5609 5606 5603 5600 5597 5595 5592 5588 5585 5582 5580 5578 5576 5575 5573 5571 5570 5569 5567 5566 5564 5562
5669 5666 5663 5660 5656 5654 5651 5647 5644 5641 5637 5633 5631 5628 5625 5623 5620 5618 5615 5612 5609 5606 5604 5601 5598 5595 5592 5589 5586 5583 5580 5577 5575 5573 5571 5570 5570 5568 5566 5565 5563 5562 5560
5667 5664 5661 5657 5654 5651 5648 5645 5641 5637 5634 5631 5628 5626 5624 5621 5619 5616 5613 5610 5607 5604 5601 5599 5596 5593 5591 5588 5585 5582 5578 5576 5574 5572 5570 5569 5568 5566 5563 5562 5560 5559 5558
5666 5662 5659 5656 5652 5649 5646 5642 5639 5635 5632 5629 5627 5625 5623 5620 5617 5615 5612 5608 5605 5602 5599 5597 5594 5591 5589 5586 5583 5580 5576 5574 5573 5571 5570 5568 5566 5565 5561 5559 5558 5557 5556
5663 5660 5656 5653 5650 5647 5644 5640 5637 5634 5631 5629 5626 5624 5622 5619 5616 5614 5611 5607 5604 5601 5598 5596 5593 5590 5588 5586 5583 5579 5575 5573 5572 5571 5569 5568 5566 5564 5560 5557 5555 5554 5554
5660 5658 5654 5650 5648 5645 5641 5638 5635 5632 5631 5629 5626 5623 5621 5619 5616 5613 5609 5606 5602 5599 5597 5594 5592 5590 5587 5585 5582 5579 5575 5572 5571 5569 5569 5567 5564 5562 5559 5556 5554 5553 5552
5656 5654 5650 5647 5645 5642 5639 5636 5633 5632 5630 5627 5624 5622 5620 5618 5616 5611 5608 5605 5601 5598 5595 5593 5591 5590 5587 5584 5582 5579 5575 5572 5569 5568 5567 5565 5562 5560 5558 5556 5554 5551 5549
5653 5650 5647 5644 5642 5640 5638 5635 5633 5631 5628 5625 5622 5620 5618 5615 5613 5609 5606 5602 5599 5596 5593 5591 5589 5588 5587 5584 5581 5578 5575 5571 5568 5566 5565 5562 5560 5558 5557 5555 5553 5551 5549
5649 5647 5644 5642 5640 5638 5637 5635 5632 5629 5626 5623 5620 5618 5615 5613 5611 5607 5604 5601 5598 5595 5593 5591 5588 5587 5585 5583 5580 5577 5574 5571 5568 5565 5563 5560 5558 5556 5554 5553 5552 5550 5548
5646 5645 5643 5640 5639 5637 5635 5633 5631 5628 5624 5621 5619 5616 5613 5611 5608 5606 5603 5600 5598 5595 5592 5590 5588 5585 5584 5583 5579 5574 5572 5569 5565 5562 5559 5558 5556 5555 5553 5551 5550 5548 5546
5645 5643 5641 5639 5637 5635 5634 5632 5630 5627 5623 5620 5617 5614 5611 5609 5606 5604 5602 5601 5598 5596 5593 5590 5587 5585 5582 5579 5576 5573 5570 5566 5562 5558 5556 5554 5553 5551 5549 5548 5547 5546 5544